N68AL KASE-KARR

Flight info

Callsign N68AL
Flight time 1h 56m
Altitude 45000
Route LINDZ1 LINDZ SXW JESIE RLG GRI DSM PLANO
Aircraft GLF4/M-SFGHIRWXY/S

Departure

Time 2026-04-27 13:55
Airport Aspen-Pitkin County Airport (Sardy Field) (KASE)

Arrival

Time 2026-04-27 15:51
Airport Aurora Municipal Airport (KARR)
Time Latitude Longitude Altitude Speed Heading
2026-04-27 13:44 39.22244 -106.86560 7765 ft 0 kts 244°
2026-04-27 13:52 39.22243 -106.86562 7765 ft 2 kts 244°
2026-04-27 13:52 39.22214 -106.86612 7763 ft 11 kts 218°
2026-04-27 13:52 39.22130 -106.86655 7765 ft 12 kts 185°
2026-04-27 13:52 39.22051 -106.86634 7771 ft 13 kts 160°
2026-04-27 13:53 39.21859 -106.86543 7785 ft 14 kts 159°
2026-04-27 13:53 39.21759 -106.86495 7793 ft 16 kts 159°
2026-04-27 13:53 39.21639 -106.86438 7801 ft 20 kts 159°
2026-04-27 13:54 39.21491 -106.86369 7811 ft 25 kts 159°
2026-04-27 13:54 39.21323 -106.86287 7821 ft 23 kts 159°
2026-04-27 13:54 39.21220 -106.86243 7826 ft 4 kts 178°
2026-04-27 13:54 39.21195 -106.86259 7827 ft 5 kts 224°
2026-04-27 13:55 39.21178 -106.86337 7823 ft 9 kts 317°
2026-04-27 13:55 39.21490 -106.86494 7804 ft 106 kts 339°
2026-04-27 13:55 39.22490 -106.86975 7924 ft 185 kts 340°
2026-04-27 13:55 39.23762 -106.87547 8944 ft 212 kts 342°
2026-04-27 13:56 39.25362 -106.88012 9547 ft 260 kts 341°
2026-04-27 13:56 39.27000 -106.89359 9864 ft 312 kts 311°
2026-04-27 13:56 39.27946 -106.91958 11117 ft 325 kts 280°
2026-04-27 13:56 39.28283 -106.94481 13823 ft 287 kts 281°
2026-04-27 13:57 39.28666 -106.96890 15442 ft 286 kts 281°
2026-04-27 13:57 39.29092 -106.99554 16155 ft 319 kts 281°
2026-04-27 13:57 39.29674 -107.02179 17327 ft 330 kts 295°
2026-04-27 13:57 39.30998 -107.04458 19091 ft 325 kts 310°
2026-04-27 13:58 39.32476 -107.06607 20605 ft 327 kts 308°
2026-04-27 13:58 39.34000 -107.08854 21765 ft 342 kts 309°
2026-04-27 13:58 39.35625 -107.11147 23052 ft 352 kts 309°
2026-04-27 13:58 39.37435 -107.13280 24541 ft 362 kts 325°
2026-04-27 13:59 39.39840 -107.14368 25928 ft 379 kts 350°
2026-04-27 13:59 39.42495 -107.14090 27159 ft 398 kts 14°
2026-04-27 13:59 39.44953 -107.12374 28400 ft 416 kts 38°
2026-04-27 13:59 39.47108 -107.09781 29729 ft 423 kts 36°
2026-04-27 14:00 39.49641 -107.07933 30896 ft 423 kts 15°
2026-04-27 14:00 39.52501 -107.06659 31906 ft 437 kts 21°
2026-04-27 14:00 39.55140 -107.04564 32902 ft 451 kts 30°
2026-04-27 14:00 39.57895 -107.02569 34121 ft 448 kts 21°
2026-04-27 14:01 39.60674 -107.00720 35272 ft 448 kts 24°
2026-04-27 14:01 39.63421 -106.98982 36288 ft 439 kts 12°
2026-04-27 14:01 39.66375 -106.98077 37036 ft 436 kts
2026-04-27 14:01 39.69398 -106.97258 37682 ft 445 kts
2026-04-27 14:02 39.72442 -106.96331 38317 ft 449 kts
2026-04-27 14:02 39.75499 -106.95451 39182 ft 449 kts
2026-04-27 14:02 39.78560 -106.94557 40094 ft 447 kts
2026-04-27 14:02 39.81618 -106.93655 40913 ft 446 kts
2026-04-27 14:03 39.84664 -106.92764 41543 ft 449 kts
2026-04-27 14:03 39.87727 -106.91866 42102 ft 452 kts
2026-04-27 14:03 39.90805 -106.90957 42735 ft 452 kts
2026-04-27 14:03 39.93857 -106.90054 43436 ft 449 kts
2026-04-27 14:04 39.96852 -106.88959 43981 ft 454 kts 20°
2026-04-27 14:04 39.99562 -106.86752 44211 ft 468 kts 42°
2026-04-27 14:04 40.01566 -106.83328 44523 ft 472 kts 65°
2026-04-27 14:04 40.02501 -106.79295 44963 ft 465 kts 87°
2026-04-27 14:05 40.02362 -106.75120 45041 ft 465 kts 106°
2026-04-27 14:05 40.01688 -106.70946 45002 ft 479 kts 101°
2026-04-27 14:05 40.01373 -106.66560 45033 ft 493 kts 96°
2026-04-27 14:05 40.01154 -106.61975 45032 ft 506 kts 96°
2026-04-27 14:06 40.00912 -106.57373 45038 ft 517 kts 96°
2026-04-27 14:06 40.00444 -106.47880 45043 ft 524 kts 96°
2026-04-27 14:07 40.01059 -106.38492 45036 ft 525 kts 76°
2026-04-27 14:07 40.02645 -106.29101 44989 ft 524 kts 80°
2026-04-27 14:08 40.04101 -106.19791 44983 ft 526 kts 80°
2026-04-27 14:08 40.05558 -106.10400 44964 ft 526 kts 80°
2026-04-27 14:09 40.07001 -106.01048 44974 ft 525 kts 80°
2026-04-27 14:09 40.08442 -105.91664 44999 ft 527 kts 80°
2026-04-27 14:10 40.09874 -105.82281 44993 ft 525 kts 80°
2026-04-27 14:10 40.11303 -105.72864 44957 ft 525 kts 80°
2026-04-27 14:11 40.12719 -105.63477 44951 ft 525 kts 80°
2026-04-27 14:11 40.14124 -105.54094 44944 ft 523 kts 80°
2026-04-27 14:12 40.15523 -105.44719 44957 ft 524 kts 80°
2026-04-27 14:12 40.16916 -105.35333 44927 ft 525 kts 81°
2026-04-27 14:13 40.18301 -105.25922 44930 ft 525 kts 81°
2026-04-27 14:13 40.19685 -105.16479 44926 ft 524 kts 81°
2026-04-27 14:14 40.21045 -105.07123 44927 ft 524 kts 81°
2026-04-27 14:14 40.22409 -104.97729 44924 ft 524 kts 81°
2026-04-27 14:15 40.23761 -104.88322 44923 ft 524 kts 81°
2026-04-27 14:15 40.25101 -104.78948 44925 ft 523 kts 81°
2026-04-27 14:16 40.26443 -104.69515 44923 ft 523 kts 81°
2026-04-27 14:16 40.27771 -104.60096 44926 ft 524 kts 81°
2026-04-27 14:17 40.29094 -104.50690 44926 ft 523 kts 81°
2026-04-27 14:17 40.30405 -104.41296 44927 ft 524 kts 81°
2026-04-27 14:18 40.31720 -104.31838 44907 ft 524 kts 82°
2026-04-27 14:18 40.33025 -104.22371 44909 ft 525 kts 82°
2026-04-27 14:19 40.34317 -104.12907 44908 ft 525 kts 82°
2026-04-27 14:19 40.35596 -104.03501 44913 ft 524 kts 82°
2026-04-27 14:20 40.36884 -103.93990 44934 ft 525 kts 82°
2026-04-27 14:20 40.38155 -103.84534 44916 ft 525 kts 82°
2026-04-27 14:21 40.39412 -103.75106 44921 ft 525 kts 82°
2026-04-27 14:21 40.40676 -103.65588 44928 ft 526 kts 82°
2026-04-27 14:22 40.41924 -103.56107 44923 ft 525 kts 82°
2026-04-27 14:22 40.43171 -103.46596 44912 ft 526 kts 82°
2026-04-27 14:23 40.44404 -103.37113 44929 ft 525 kts 82°
2026-04-27 14:23 40.45637 -103.27572 44927 ft 526 kts 83°
2026-04-27 14:24 40.46855 -103.18049 44915 ft 526 kts 82°
2026-04-27 14:24 40.48049 -103.08697 44907 ft 525 kts 82°
2026-04-27 14:25 40.49254 -102.99191 44910 ft 526 kts 82°
2026-04-27 14:25 40.50445 -102.89705 44904 ft 526 kts 82°
2026-04-27 14:26 40.51643 -102.80120 44900 ft 527 kts 82°
2026-04-27 14:26 40.52825 -102.70591 44904 ft 528 kts 82°
2026-04-27 14:27 40.54005 -102.60995 44904 ft 528 kts 83°
2026-04-27 14:27 40.55177 -102.51402 44909 ft 527 kts 82°
2026-04-27 14:28 40.56337 -102.41849 44898 ft 526 kts 83°
2026-04-27 14:28 40.57499 -102.32200 44882 ft 526 kts 83°
2026-04-27 14:29 40.58643 -102.22632 44886 ft 526 kts 83°
2026-04-27 14:29 40.59782 -102.13062 44892 ft 526 kts 83°
2026-04-27 14:30 40.60908 -102.03503 44871 ft 526 kts 83°
2026-04-27 14:30 40.62033 -101.93888 44865 ft 526 kts 83°
2026-04-27 14:31 40.63148 -101.84309 44865 ft 527 kts 83°
2026-04-27 14:31 40.64260 -101.74660 44868 ft 528 kts 83°
2026-04-27 14:32 40.65355 -101.65074 44876 ft 527 kts 83°
2026-04-27 14:32 40.66449 -101.55436 44867 ft 528 kts 83°
2026-04-27 14:33 40.67536 -101.45805 44862 ft 528 kts 83°
2026-04-27 14:33 40.68616 -101.36157 44856 ft 527 kts 83°
2026-04-27 14:34 40.69690 -101.26497 44836 ft 527 kts 84°
2026-04-27 14:34 40.70757 -101.16793 44845 ft 527 kts 84°
2026-04-27 14:35 40.71805 -101.07192 44847 ft 527 kts 84°
2026-04-27 14:35 40.72847 -100.97572 44845 ft 526 kts 84°
2026-04-27 14:36 40.73888 -100.87888 44844 ft 526 kts 84°
2026-04-27 14:36 40.74913 -100.78268 44841 ft 526 kts 84°
2026-04-27 14:37 40.75935 -100.68607 44840 ft 528 kts 84°
2026-04-27 14:37 40.76952 -100.58909 44839 ft 529 kts 84°
2026-04-27 14:38 40.77959 -100.49249 44833 ft 528 kts 84°
2026-04-27 14:38 40.78956 -100.39595 44820 ft 528 kts 84°
2026-04-27 14:39 40.79952 -100.29852 44822 ft 527 kts 85°
2026-04-27 14:39 40.80929 -100.20197 44814 ft 527 kts 85°
2026-04-27 14:40 40.81907 -100.10483 44805 ft 526 kts 85°
2026-04-27 14:40 40.82873 -100.00789 44811 ft 527 kts 84°
2026-04-27 14:41 40.83834 -99.91074 44813 ft 527 kts 85°
2026-04-27 14:41 40.84779 -99.81421 44836 ft 527 kts 84°
2026-04-27 14:42 40.85728 -99.71653 44824 ft 528 kts 84°
2026-04-27 14:42 40.86664 -99.61934 44823 ft 529 kts 85°
2026-04-27 14:43 40.87591 -99.52189 44801 ft 529 kts 84°
2026-04-27 14:43 40.88512 -99.42458 44803 ft 529 kts 84°
2026-04-27 14:44 40.89435 -99.32591 44789 ft 530 kts 85°
2026-04-27 14:44 40.90341 -99.22830 44782 ft 529 kts 85°
2026-04-27 14:45 40.91238 -99.13067 44785 ft 530 kts 85°
2026-04-27 14:45 40.92123 -99.03350 44778 ft 529 kts 85°
2026-04-27 14:46 40.93010 -98.93516 44775 ft 529 kts 85°
2026-04-27 14:46 40.93882 -98.83742 44776 ft 530 kts 85°
2026-04-27 14:47 40.94752 -98.73899 44781 ft 531 kts 85°
2026-04-27 14:47 40.95613 -98.64058 44783 ft 531 kts 85°
2026-04-27 14:48 40.96463 -98.54263 44774 ft 531 kts 85°
2026-04-27 14:48 40.97726 -98.39481 44779 ft 532 kts 85°
2026-04-27 14:49 40.98590 -98.29676 44770 ft 531 kts 83°
2026-04-27 14:49 40.99771 -98.19875 44766 ft 531 kts 83°
2026-04-27 14:50 41.00911 -98.10091 44763 ft 532 kts 83°
2026-04-27 14:50 41.02040 -98.00339 44759 ft 531 kts 83°
2026-04-27 14:51 41.03170 -97.90523 44757 ft 531 kts 83°
2026-04-27 14:51 41.04288 -97.80691 44743 ft 531 kts 83°
2026-04-27 14:52 41.05399 -97.70874 44734 ft 531 kts 83°
2026-04-27 14:52 41.06496 -97.61106 44732 ft 531 kts 83°
2026-04-27 14:53 41.07583 -97.51342 44737 ft 532 kts 83°
2026-04-27 14:53 41.08672 -97.41499 44719 ft 531 kts 83°
2026-04-27 14:54 41.09747 -97.31676 44704 ft 531 kts 84°
2026-04-27 14:54 41.10816 -97.21842 44688 ft 530 kts 84°
2026-04-27 14:55 41.11870 -97.12061 44689 ft 529 kts 84°
2026-04-27 14:55 41.12921 -97.02232 44685 ft 530 kts 84°
2026-04-27 14:56 41.13958 -96.92457 44682 ft 529 kts 84°
2026-04-27 14:56 41.14987 -96.82688 44693 ft 529 kts 84°
2026-04-27 14:57 41.16005 -96.72906 44704 ft 529 kts 83°
2026-04-27 14:57 41.17018 -96.63113 44694 ft 528 kts 83°
2026-04-27 14:58 41.18021 -96.53342 44700 ft 529 kts 83°
2026-04-27 14:58 41.19014 -96.43543 44699 ft 529 kts 83°
2026-04-27 14:59 41.20002 -96.33775 44687 ft 528 kts 84°
2026-04-27 14:59 41.20982 -96.23975 44662 ft 528 kts 84°
2026-04-27 15:00 41.21943 -96.14265 44659 ft 527 kts 84°
2026-04-27 15:00 41.22909 -96.04426 44655 ft 527 kts 84°
2026-04-27 15:01 41.23860 -95.94639 44654 ft 528 kts 84°
2026-04-27 15:01 41.24799 -95.84930 44658 ft 525 kts 84°
2026-04-27 15:02 41.25731 -95.75159 44651 ft 525 kts 84°
2026-04-27 15:02 41.26656 -95.65389 44655 ft 528 kts 84°
2026-04-27 15:03 41.27581 -95.55528 44663 ft 528 kts 84°
2026-04-27 15:03 41.28493 -95.45715 44663 ft 527 kts 84°
2026-04-27 15:04 41.29396 -95.35890 44674 ft 528 kts 84°
2026-04-27 15:04 41.30295 -95.26037 44658 ft 526 kts 85°
2026-04-27 15:05 41.31175 -95.16266 44646 ft 528 kts 85°
2026-04-27 15:05 41.32045 -95.06493 44650 ft 527 kts 84°
2026-04-27 15:06 41.32922 -94.96662 44653 ft 527 kts 85°
2026-04-27 15:06 41.33782 -94.86848 44659 ft 526 kts 84°
2026-04-27 15:07 41.34629 -94.77061 44665 ft 525 kts 85°
2026-04-27 15:07 41.35471 -94.67278 44662 ft 526 kts 85°
2026-04-27 15:08 41.36299 -94.57503 44656 ft 526 kts 84°
2026-04-27 15:08 41.37128 -94.47688 44662 ft 525 kts 84°
2026-04-27 15:09 41.37944 -94.37925 44661 ft 526 kts 85°
2026-04-27 15:09 41.38749 -94.28135 44652 ft 525 kts 85°
2026-04-27 15:10 41.39549 -94.18360 44642 ft 525 kts 85°
2026-04-27 15:10 41.40344 -94.08534 44635 ft 524 kts 85°
2026-04-27 15:11 41.41119 -93.98756 44637 ft 526 kts 85°
2026-04-27 15:11 41.41892 -93.88992 44638 ft 524 kts 85°
2026-04-27 15:12 41.42660 -93.79185 44638 ft 526 kts 85°
2026-04-27 15:12 41.43420 -93.69352 44627 ft 525 kts 85°
2026-04-27 15:13 41.44066 -93.59572 44635 ft 525 kts 87°
2026-04-27 15:13 41.44598 -93.50008 44636 ft 526 kts 86°
2026-04-27 15:14 41.45121 -93.40408 44646 ft 526 kts 86°
2026-04-27 15:14 41.45645 -93.30795 44634 ft 527 kts 87°
2026-04-27 15:15 41.46169 -93.20907 44639 ft 526 kts 88°
2026-04-27 15:15 41.46683 -93.11051 44625 ft 526 kts 87°
2026-04-27 15:16 41.47169 -93.01699 44621 ft 525 kts 87°
2026-04-27 15:16 41.47672 -92.91794 44618 ft 526 kts 86°
2026-04-27 15:17 41.48161 -92.81960 44628 ft 524 kts 87°
2026-04-27 15:17 41.48637 -92.72277 44634 ft 526 kts 87°
2026-04-27 15:18 41.49115 -92.62373 44642 ft 528 kts 87°
2026-04-27 15:18 41.49580 -92.52482 44645 ft 526 kts 87°
2026-04-27 15:19 41.50028 -92.42896 44594 ft 521 kts 87°
2026-04-27 15:19 41.50250 -92.38042 44139 ft 510 kts 88°
2026-04-27 15:19 41.50459 -92.33643 43650 ft 503 kts 89°
2026-04-27 15:20 41.50677 -92.28884 43140 ft 494 kts 90°
2026-04-27 15:20 41.50883 -92.24304 42645 ft 487 kts 90°
2026-04-27 15:20 41.51083 -92.19821 42170 ft 479 kts 91°
2026-04-27 15:20 41.51240 -92.16211 41799 ft 473 kts 92°
2026-04-27 15:21 41.51432 -92.11824 41329 ft 467 kts 93°
2026-04-27 15:21 41.51622 -92.07439 40865 ft 462 kts 94°
2026-04-27 15:21 41.51798 -92.03283 40435 ft 459 kts 95°
2026-04-27 15:21 41.51978 -91.98992 39961 ft 457 kts 95°
2026-04-27 15:22 41.52161 -91.94732 39462 ft 453 kts 96°
2026-04-27 15:22 41.52326 -91.90507 38889 ft 448 kts 96°
2026-04-27 15:22 41.52493 -91.86314 38374 ft 442 kts 95°
2026-04-27 15:22 41.52658 -91.82212 37888 ft 439 kts 95°
2026-04-27 15:23 41.52813 -91.78359 37470 ft 439 kts 95°
2026-04-27 15:23 41.52974 -91.74287 37035 ft 439 kts 94°
2026-04-27 15:23 41.53139 -91.70175 36608 ft 439 kts 94°
2026-04-27 15:23 41.53300 -91.66069 36208 ft 439 kts 94°
2026-04-27 15:24 41.53465 -91.61934 35828 ft 439 kts 93°
2026-04-27 15:24 41.53612 -91.57956 35464 ft 443 kts 94°
2026-04-27 15:24 41.53772 -91.53805 35059 ft 450 kts 92°
2026-04-27 15:24 41.53940 -91.49489 34662 ft 456 kts 92°
2026-04-27 15:25 41.54100 -91.45170 34196 ft 463 kts 92°
2026-04-27 15:25 41.54262 -91.40820 33714 ft 467 kts 91°
2026-04-27 15:25 41.54432 -91.36422 33232 ft 467 kts 91°
2026-04-27 15:25 41.54572 -91.32516 32799 ft 468 kts 92°
2026-04-27 15:26 41.54736 -91.28060 32308 ft 466 kts 92°
2026-04-27 15:26 41.54896 -91.23669 31836 ft 461 kts 92°
2026-04-27 15:26 41.55049 -91.19392 31372 ft 457 kts 92°
2026-04-27 15:26 41.55195 -91.15114 30903 ft 453 kts 92°
2026-04-27 15:27 41.55338 -91.11061 30454 ft 451 kts 92°
2026-04-27 15:27 41.55483 -91.06942 30016 ft 447 kts 92°
2026-04-27 15:27 41.55622 -91.02771 29564 ft 446 kts 92°
2026-04-27 15:27 41.55762 -90.98547 29122 ft 447 kts 92°
2026-04-27 15:28 41.55903 -90.94351 28662 ft 448 kts 91°
2026-04-27 15:28 41.56038 -90.90263 28239 ft 448 kts 91°
2026-04-27 15:28 41.56173 -90.86066 27808 ft 450 kts 91°
2026-04-27 15:28 41.56313 -90.81802 27383 ft 451 kts 92°
2026-04-27 15:29 41.56446 -90.77557 26895 ft 452 kts 92°
2026-04-27 15:29 41.56581 -90.73316 26419 ft 453 kts 92°
2026-04-27 15:29 41.56708 -90.69029 25949 ft 453 kts 92°
2026-04-27 15:29 41.56839 -90.64956 25513 ft 453 kts 92°
2026-04-27 15:30 41.56962 -90.60870 25061 ft 454 kts 92°
2026-04-27 15:30 41.57087 -90.56724 24602 ft 453 kts 91°
2026-04-27 15:30 41.57207 -90.52543 24144 ft 452 kts 91°
2026-04-27 15:30 41.57336 -90.48319 23675 ft 449 kts 91°
2026-04-27 15:31 41.57453 -90.44071 23205 ft 445 kts 91°
2026-04-27 15:31 41.57570 -90.40164 22784 ft 441 kts 91°
2026-04-27 15:31 41.57687 -90.36017 22333 ft 436 kts 91°
2026-04-27 15:31 41.57804 -90.31927 21878 ft 432 kts 92°
2026-04-27 15:32 41.57914 -90.27887 21422 ft 428 kts 93°
2026-04-27 15:32 41.58021 -90.23850 20964 ft 424 kts 93°
2026-04-27 15:32 41.58128 -90.19920 20528 ft 421 kts 93°
2026-04-27 15:32 41.58231 -90.16174 20111 ft 418 kts 94°
2026-04-27 15:33 41.58331 -90.12252 19681 ft 415 kts 93°
2026-04-27 15:33 41.58425 -90.08373 19255 ft 413 kts 93°
2026-04-27 15:33 41.58526 -90.04479 18826 ft 412 kts 94°
2026-04-27 15:33 41.58624 -90.00613 18407 ft 410 kts 93°
2026-04-27 15:34 41.58722 -89.96728 17978 ft 409 kts 93°
2026-04-27 15:34 41.58816 -89.92911 17564 ft 407 kts 94°
2026-04-27 15:34 41.58904 -89.89099 17123 ft 406 kts 94°
2026-04-27 15:34 41.59001 -89.85266 16729 ft 400 kts 93°
2026-04-27 15:35 41.59078 -89.81529 16329 ft 392 kts 94°
2026-04-27 15:35 41.59195 -89.77967 16122 ft 388 kts 87°
2026-04-27 15:35 41.60021 -89.74402 15907 ft 400 kts 64°
2026-04-27 15:35 41.61370 -89.71155 15650 ft 393 kts 64°
2026-04-27 15:36 41.62594 -89.67856 15333 ft 386 kts 66°
2026-04-27 15:36 41.63771 -89.64613 14985 ft 376 kts 66°
2026-04-27 15:36 41.64894 -89.61490 14638 ft 365 kts 67°
2026-04-27 15:36 41.65984 -89.58435 14287 ft 358 kts 67°
2026-04-27 15:37 41.67094 -89.55302 13934 ft 374 kts 68°
2026-04-27 15:37 41.68216 -89.52165 13552 ft 365 kts 67°
2026-04-27 15:37 41.69298 -89.49116 13169 ft 355 kts 68°
2026-04-27 15:37 41.70364 -89.46116 12819 ft 346 kts 68°
2026-04-27 15:38 41.71419 -89.43117 12454 ft 363 kts 68°
2026-04-27 15:38 41.72472 -89.40153 12090 ft 357 kts 67°
2026-04-27 15:38 41.73541 -89.37126 11725 ft 359 kts 67°
2026-04-27 15:38 41.74561 -89.34238 11388 ft 362 kts 68°
2026-04-27 15:39 41.75649 -89.31162 11008 ft 365 kts 68°
2026-04-27 15:39 41.76703 -89.28182 10645 ft 367 kts 68°
2026-04-27 15:39 41.77806 -89.25036 10273 ft 369 kts 68°
2026-04-27 15:39 41.78919 -89.21883 10035 ft 365 kts 68°
2026-04-27 15:40 41.80003 -89.18790 9973 ft 356 kts 68°
2026-04-27 15:40 41.80948 -89.16103 9971 ft 348 kts 68°
2026-04-27 15:40 41.81983 -89.13167 9970 ft 340 kts 69°
2026-04-27 15:40 41.82988 -89.10274 9972 ft 333 kts 69°
2026-04-27 15:41 41.83963 -89.07479 9972 ft 327 kts 68°
2026-04-27 15:41 41.84892 -89.04827 9960 ft 314 kts 69°
2026-04-27 15:41 41.85813 -89.02196 9758 ft 306 kts 69°
2026-04-27 15:41 41.86714 -88.99604 9372 ft 306 kts 69°
2026-04-27 15:42 41.87630 -88.96984 8886 ft 307 kts 70°
2026-04-27 15:42 41.88520 -88.94436 8447 ft 306 kts 70°
2026-04-27 15:42 41.89409 -88.91871 8093 ft 302 kts 70°
2026-04-27 15:42 41.90300 -88.89311 7711 ft 300 kts 71°
2026-04-27 15:43 41.91167 -88.86815 7350 ft 296 kts 71°
2026-04-27 15:43 41.92052 -88.84274 6974 ft 294 kts 72°
2026-04-27 15:43 41.92881 -88.81883 6592 ft 293 kts 72°
2026-04-27 15:43 41.93702 -88.79503 6226 ft 291 kts 73°
2026-04-27 15:44 41.94558 -88.77028 5906 ft 286 kts 72°
2026-04-27 15:44 41.95370 -88.74680 5627 ft 282 kts 73°
2026-04-27 15:44 41.96180 -88.72328 5221 ft 282 kts 73°
2026-04-27 15:44 41.96960 -88.70064 4860 ft 276 kts 73°
2026-04-27 15:45 41.97477 -88.67854 4213 ft 251 kts 97°
2026-04-27 15:45 41.97008 -88.65906 4429 ft 192 kts 134°
2026-04-27 15:45 41.96194 -88.64578 4250 ft 180 kts 142°
2026-04-27 15:45 41.95243 -88.63551 4052 ft 171 kts 151°
2026-04-27 15:46 41.94259 -88.62695 3899 ft 163 kts 153°
2026-04-27 15:46 41.93306 -88.61931 3795 ft 154 kts 154°
2026-04-27 15:46 41.92424 -88.61265 3703 ft 146 kts 155°
2026-04-27 15:46 41.91545 -88.60556 3631 ft 153 kts 150°
2026-04-27 15:47 41.90631 -88.59729 3530 ft 156 kts 151°
2026-04-27 15:47 41.89723 -88.58927 3352 ft 156 kts 152°
2026-04-27 15:47 41.88814 -88.58130 3122 ft 155 kts 150°
2026-04-27 15:47 41.87911 -88.57337 2910 ft 153 kts 149°
2026-04-27 15:48 41.87021 -88.56551 2697 ft 152 kts 149°
2026-04-27 15:48 41.86137 -88.55773 2503 ft 151 kts 149°
2026-04-27 15:48 41.85428 -88.55148 2484 ft 135 kts 150°
2026-04-27 15:49 41.83946 -88.53844 2155 ft 120 kts 148°
2026-04-27 15:49 41.83331 -88.53302 2001 ft 98 kts 147°
2026-04-27 15:49 41.82753 -88.52794 1759 ft 103 kts 146°
2026-04-27 15:49 41.82129 -88.52250 1575 ft 111 kts 146°
2026-04-27 15:50 41.81470 -88.51666 1409 ft 115 kts 146°
2026-04-27 15:50 41.80791 -88.51067 1268 ft 117 kts 147°
2026-04-27 15:50 41.80090 -88.50454 1142 ft 118 kts 147°
2026-04-27 15:50 41.79411 -88.49857 1033 ft 113 kts 146°
2026-04-27 15:51 41.78756 -88.49284 914 ft 116 kts 146°
2026-04-27 15:51 41.78073 -88.48681 756 ft 116 kts 146°
2026-04-27 15:51 41.77469 -88.48147 716 ft 84 kts 146°
2026-04-27 15:51 41.77098 -88.47819 716 ft 44 kts 147°
2026-04-27 15:52 41.76932 -88.47669 716 ft 17 kts 139°
2026-04-27 15:52 41.76916 -88.47563 716 ft 14 kts 90°
2026-04-27 15:52 41.76918 -88.47364 716 ft 27 kts 90°
2026-04-27 15:52 41.76922 -88.47076 716 ft 25 kts 88°
2026-04-27 15:53 41.76875 -88.46942 716 ft 14 kts 146°
2026-04-27 15:53 41.76792 -88.46918 716 ft 9 kts 178°
2026-04-27 15:53 41.76769 -88.46917 716 ft 0 kts 178°